Flag for U.S.A. Weather past 2 weeks in Sioux Falls, South Dakota, U.S.A.

Now
26 °F

Ice fog.


Feels Like: 26 °F
Forecast: 30 / 44 °F
Wind: No wind

Location: Foss Field

Current Time: Jan 27, 2015 at 7:00:15 AM

Latest Report: Jan 27, 2015 at 5:56 AM


Visibility: 4 mi

Pressure: 30.10 "Hg

Humidity: 92%

Dew point: 24 °F

Location of Sioux FallsLocation

Historic Weather in Sioux Falls — Graph

°F

Sioux Falls temperature yesterday

Maximum temperature yesterday: 48 °F (at 1:56 PM)
Minimum temperature yesterday: 31 °F (at 10:56 PM)
Average temperature yesterday: 38 °F

Past Weeks' High & Low Weather Summary

 TemperatureHumidityPressure
High48 °F (Jan 26, 1:56 PM)100% (Jan 15, 11:56 PM)30.85 "Hg (Jan 15, 11:56 PM)
Low-14 °F (Jan 13, 12:56 AM)44% (Jan 18, 1:56 PM)29.59 "Hg (Jan 24, 8:56 PM)
Average28 °F81%30.09 "Hg
* Reported Jan 12 5:56 AM — Jan 27 5:56 AM, Sioux Falls, Weather by CustomWeather, © 2014

Note: Actual official high and low records may vary slightly from our data, if they occured in-between our weather recording intervals... More about our weather records

Advertising

Sioux Falls weather history for previous 24 hours

 ConditionsComfort  
Time TempWeatherWind HumidityBarometerVisibility
5:56 AM
Jan 27
26 °FIce fog.No wind92%30.10 "Hg4 mi
4:56 AM26 °FClear.No wind88%30.09 "Hg9 mi
3:56 AM26 °FClear.No wind92%30.08 "Hg10 mi
2:56 AM28 °FClear.No wind93%30.09 "Hg10 mi
1:56 AM27 °FClear.No wind96%30.07 "Hg10 mi
12:56 AM30 °FClear.6 mph92%30.09 "Hg10 mi
11:56 PM
Jan 26
32 °FPassing clouds.3 mph88%30.07 "Hg10 mi
10:56 PM31 °FPassing clouds.5 mph92%30.06 "Hg10 mi
9:56 PM33 °FPassing clouds.No wind92%30.05 "Hg10 mi
8:56 PM33 °FPassing clouds.No wind88%30.05 "Hg10 mi
7:56 PM35 °FClear.7 mph85%30.03 "Hg10 mi
6:56 PM38 °FPassing clouds.9 mph79%30.01 "Hg10 mi
5:56 PM40 °FPassing clouds.13 mph80%29.99 "Hg10 mi
4:56 PM44 °FPassing clouds.13 mph73%29.98 "Hg10 mi
3:56 PM47 °FPassing clouds.16 mph66%29.96 "Hg10 mi
2:56 PM48 °FPassing clouds.14 mph66%29.93 "Hg10 mi
1:56 PM48 °FPassing clouds.17 mph68%29.93 "Hg10 mi
12:56 PM47 °FPassing clouds.18 mph71%29.92 "Hg10 mi
11:56 AM45 °FPassing clouds.20 mph74%29.93 "Hg10 mi
10:56 AM42 °FPassing clouds.18 mph79%29.91 "Hg10 mi
9:56 AM40 °FPassing clouds.13 mph83%29.89 "Hg10 mi
8:56 AM37 °FPassing clouds.16 mph86%29.87 "Hg10 mi
7:56 AM36 °FPassing clouds.16 mph85%29.85 "Hg10 mi
Weather by CustomWeather, © 2014

See weather overviewHow to use our weather pages